Orbital Elements at Epoch 2459200.5 (2020-Dec-17.0) TDB
Reference: JPL 20 (heliocentric ecliptic J2000)
Element | Value | Uncertainty (1-sigma) | Units |
e | .1982511894067331 | 1.2671e-07 | |
a | 2.577574511620806 | 1.8412e-08 | au |
q | 2.066567298907502 | 3.3528e-07 | au |
i | 7.303204090695207 | 6.4438e-06 | deg |
node | 352.5581441500986 | 3.7376e-05 | deg |
peri | 38.41175422469807 | 4.2808e-05 | deg |
M | 181.9418811918071 | 1.5722e-05 | deg |
tp | 2459948.109049477142 (2023-Jan-03.60904948) | 7.1042e-05 | TDB |
period | 1511.524774119916 4.14 | 1.6196e-05 4.434e-08 | d yr |
n | .2381700956304931 | 2.552e-09 | deg/d |
Q | 3.08858172433411 | 2.2063e-08 | au |
|
| | Orbit Determination Parameters
Additional Information
|